STARLINK-5908 (55951 NORAD) Tracking and Keplerian Element Data

This shows tracking and keplerian element data for the satellite.

Feedback or suggestion? Click here.




ElementValue
Catalog55951
NameSTARLINK-5908
Epoch Orbit839
Epoch Day126.86721458
Epoch Year2023
RAAN40.2085
Inclination70.0026
Eccentricity0.0003949
Argument of Perigee276.5403
Mean Anonmoly83.5343
Mean Motion15.69936672
Decay Rate4.068E-05
L11 55951U 23037AP 23126.86721458 .00004068 00000+0 35565-4 0 9990
L22 55951 70.0026 40.2085 0003949 276.5403 83.5343 15.69936672 8393



Live tracking and technical data element details for STARLINK-5908 (NORAD 55951). STARLINK-5908 can be tracked NOW for your location showing map with azimuth and elevation plus other details from your city location.







IsCatalogInMostPopularTable: catalog: 55951, numindb: 11
Update: records affected: 1



GetName: 55951 STARLINK-5908

Hit Count: updated at: Tue, 06 Jun 2023 02:22:00 GMT